This demonstration page uses our WeatherBlox Daily Observations layout. Learn more.

Left ArrowRight Arrow

36.19886, -115.1175

Hourly Observations for March 11, 2017

Temp ( °F °C ) Dew Point ( °F °C ) Humidity (%) Winds ( mph kmh ) Pressure ( in mb ) Visibility ( mi km ) Precip ( " mm )
12:53 am 00:53 Clear 68 20 29 -1.7 23 23 NNW 13 20 30.01 1016 10 16 N/A
1:53 am 01:53 Clear 65 18.3 29 -1.7 26 26 N 10 17 30.02 1017 10 16 N/A
2:53 am 02:53 Clear 62 16.7 29 -1.7 29 29 NNW 12 19 30.03 1017 10 16 N/A
3:53 am 03:53 Clear 62 16.7 29 -1.7 29 29 N 12 19 30.04 1017 10 16 N/A
4:53 am 04:53 Clear 59 15 30 -1.1 33 33 NW 3 6 30.06 1018 10 16 N/A
5:53 am 05:53 Clear 61 16.1 30 -1.1 31 31 N 10 17 30.08 1019 10 16 N/A
6:53 am 06:53 Sunny 61 16.1 30 -1.1 31 31 NNW 8 13 30.10 1019 10 16 N/A
7:53 am 07:53 Sunny 67 19.4 31 -0.6 26 26 NNE 6 9 30.13 1020 10 16 N/A
8:53 am 08:53 Sunny 72 22.2 30 -1.1 21 21 N 7 11 30.14 1021 10 16 N/A
9:53 am 09:53 Sunny 75 23.9 30 -1.1 19 19 NNE 10 17 30.14 1021 10 16 N/A
10:53 am 10:53 Sunny 76 24.4 30 -1.1 18 18 ENE 7 11 30.12 1020 10 16 N/A
11:53 am 11:53 Sunny 78 25.6 30 -1.1 17 17 N N/A 30.09 1019 10 16 N/A
12:53 pm 12:53 Sunny 79 26.1 31 -0.6 17 17 ESE 8 13 30.06 1018 10 16 N/A
1:53 pm 13:53 Sunny 80 26.7 29 -1.7 15 15 VRB 3 6 30.05 1018 10 16 N/A
2:53 pm 14:53 Sunny 80 26.7 29 -1.7 15 15 W 6 9 30.03 1017 10 16 N/A
3:53 pm 15:53 Sunny 81 27.2 27 -2.8 14 14 WNW 5 7 30.01 1016 10 16 N/A
4:53 pm 16:53 Sunny 81 27.2 27 -2.8 14 14 WNW 6 9 30.01 1016 10 16 N/A
5:53 pm 17:53 Clear 77 25 30 -1.1 18 18 ESE 6 9 30.02 1017 10 16 N/A
6:53 pm 18:53 Clear 73 22.8 32 undefined 22 22 N N/A 30.03 1017 10 16 N/A
7:53 pm 19:53 Clear 72 22.2 33 0.6 24 24 NW 5 7 30.03 1017 10 16 N/A
8:53 pm 20:53 Clear 68 20 34 1.1 28 28 WNW 3 6 30.04 1017 10 16 N/A
9:53 pm 21:53 Clear 65 18.3 34 1.1 32 32 NNW 7 11 30.05 1018 10 16 N/A
10:53 pm 22:53 Clear 62 16.7 33 0.6 34 34 NW 6 9 30.06 1018 10 16 N/A
11:53 pm 23:53 Clear 64 17.8 32 undefined 30 30 WNW 7 11 30.05 1018 10 16 N/A

Powered by AerisWeather